SARAL (39086 NORAD) Tracking and Keplerian Element Data

This shows tracking and keplerian element data for the satellite.

Feedback or suggestion? Click here.




ElementValue
Catalog39086
NameSARAL
Epoch Orbit34299
Epoch Day261.88818788
Epoch Year2019
RAAN86.6464
Inclination98.5429
Eccentricity0.0001219
Argument of Perigee42.4845
Mean Anonmoly317.6433
Mean Motion14.32011007
Decay Rate-2.6E-07
L11 39086U 13009A 19261.88818788 -.00000026 00000-0 64015-5 0 9994
L22 39086 98.5429 86.6464 0001219 42.4845 317.6433 14.32011007342992

Live tracking and technical data element details for SARAL (NORAD 39086). SARAL can be tracked NOW for your location showing map with azimuth and elevation plus other details from your city location.

Track the satellite on the map from your city or location and see movement details for azimuth, elevation, latitude, longitude, range, height, and movement on the map or in text.







IsCatalogInMostPopularTable: catalog: 39086, numindb: 309
Update: records affected: 1



GetName: 39086 SARAL

Hit Count: updated at: Thu, 19 Sep 2019 17:46:23 GMT